ANZ164 YBCS-NZAA

Flight info

Callsign ANZ164
Flight time N/A
Altitude 37000
Route AKROM Z17 OVRON A346 IGLET DCT UPLAR
Aircraft A320/M-SDE3FGHIRWY/LB1

Departure

Time N/A
Airport Cairns International Airport (YBCS)

Arrival

Time 2026-05-06 02:55
Airport Auckland International Airport (NZAA)
Time Latitude Longitude Altitude Speed Heading
2026-05-06 02:26 -35.82145 171.87104 36574 ft 453 kts 116°
2026-05-06 02:27 -35.83315 171.90706 36791 ft 453 kts 116°
2026-05-06 02:27 -35.84482 171.94311 37033 ft 453 kts 116°
2026-05-06 02:27 -35.85648 171.97916 37260 ft 453 kts 116°
2026-05-06 02:28 -35.87956 172.05064 37326 ft 439 kts 116°
2026-05-06 02:28 -35.90218 172.12094 37330 ft 445 kts 116°
2026-05-06 02:29 -35.92515 172.19215 37331 ft 447 kts 115°
2026-05-06 02:29 -35.94805 172.26358 37259 ft 449 kts 115°
2026-05-06 02:29 -35.95969 172.29981 36234 ft 461 kts 115°
2026-05-06 02:30 -35.97174 172.33727 35076 ft 475 kts 115°
2026-05-06 02:30 -35.98378 172.37493 34723 ft 467 kts 115°
2026-05-06 02:30 -35.99550 172.41179 34628 ft 455 kts 116°
2026-05-06 02:30 -36.00687 172.44772 34534 ft 443 kts 116°
2026-05-06 02:31 -36.01779 172.48232 34438 ft 434 kts 116°
2026-05-06 02:31 -36.03962 172.55122 34246 ft 428 kts 116°
2026-05-06 02:32 -36.06144 172.61953 34045 ft 426 kts 116°
2026-05-06 02:32 -36.08307 172.68761 33845 ft 424 kts 116°
2026-05-06 02:33 -36.10449 172.75562 33281 ft 423 kts 116°
2026-05-06 02:33 -36.10795 172.76661 33132 ft 423 kts 116°
2026-05-06 02:34 -36.14326 172.87905 31596 ft 418 kts 115°
2026-05-06 02:34 -36.15384 172.91258 31150 ft 417 kts 115°
2026-05-06 02:34 -36.16434 172.94599 30697 ft 416 kts 115°
2026-05-06 02:34 -36.17480 172.97934 30238 ft 415 kts 115°
2026-05-06 02:35 -36.18854 173.02330 29649 ft 412 kts 115°
2026-05-06 02:35 -36.19551 173.04562 29360 ft 410 kts 115°
2026-05-06 02:35 -36.20574 173.07844 28949 ft 407 kts 115°
2026-05-06 02:35 -36.21590 173.11111 28535 ft 405 kts 115°
2026-05-06 02:36 -36.22597 173.14355 28130 ft 403 kts 115°
2026-05-06 02:36 -36.23605 173.17599 27715 ft 402 kts 115°
2026-05-06 02:36 -36.24607 173.20827 27304 ft 401 kts 114°
2026-05-06 02:36 -36.25606 173.24047 26890 ft 400 kts 114°
2026-05-06 02:37 -36.26589 173.27219 26476 ft 399 kts 114°
2026-05-06 02:37 -36.27582 173.30431 26051 ft 399 kts 114°
2026-05-06 02:37 -36.28575 173.33647 25634 ft 398 kts 114°
2026-05-06 02:37 -36.29566 173.36855 25179 ft 399 kts 114°
2026-05-06 02:38 -36.30557 173.40065 24740 ft 399 kts 114°
2026-05-06 02:38 -36.31548 173.43278 24286 ft 399 kts 113°
2026-05-06 02:38 -36.32538 173.46488 23811 ft 400 kts 113°
2026-05-06 02:38 -36.33531 173.49707 23320 ft 399 kts 113°
2026-05-06 02:39 -36.34520 173.52921 22853 ft 397 kts 113°
2026-05-06 02:39 -36.35499 173.56106 22387 ft 395 kts 112°
2026-05-06 02:39 -36.36474 173.59286 21935 ft 393 kts 112°
2026-05-06 02:39 -36.37441 173.62453 21477 ft 391 kts 112°
2026-05-06 02:40 -36.38401 173.65606 21008 ft 390 kts 112°
2026-05-06 02:40 -36.39484 173.68679 20558 ft 386 kts 121°
2026-05-06 02:40 -36.41025 173.71375 20139 ft 381 kts 133°
2026-05-06 02:40 -36.42890 173.73691 19705 ft 378 kts 137°
2026-05-06 02:41 -36.44768 173.75958 19278 ft 375 kts 136°
2026-05-06 02:41 -36.46631 173.78217 18853 ft 373 kts 136°
2026-05-06 02:41 -36.48481 173.80469 18398 ft 371 kts 136°
2026-05-06 02:41 -36.50299 173.82680 17962 ft 368 kts 136°
2026-05-06 02:42 -36.52139 173.84919 17548 ft 364 kts 136°
2026-05-06 02:42 -36.53919 173.87093 17140 ft 361 kts 136°
2026-05-06 02:42 -36.55703 173.89271 16733 ft 358 kts 136°
2026-05-06 02:42 -36.57475 173.91431 16329 ft 355 kts 135°
2026-05-06 02:43 -36.59236 173.93578 15928 ft 353 kts 135°
2026-05-06 02:43 -36.60986 173.95713 15528 ft 351 kts 135°
2026-05-06 02:43 -36.62725 173.97837 15135 ft 349 kts 135°
2026-05-06 02:43 -36.64453 173.99950 14737 ft 347 kts 135°
2026-05-06 02:44 -36.66172 174.02051 14350 ft 345 kts 135°
2026-05-06 02:44 -36.67880 174.04142 13945 ft 343 kts 135°
2026-05-06 02:44 -36.69575 174.06220 13548 ft 340 kts 135°
2026-05-06 02:44 -36.71263 174.08291 12911 ft 345 kts 134°
2026-05-06 02:45 -36.72974 174.10391 12436 ft 344 kts 134°
2026-05-06 02:45 -36.74668 174.12470 12050 ft 341 kts 134°
2026-05-06 02:45 -36.76353 174.14541 11662 ft 338 kts 134°
2026-05-06 02:45 -36.78015 174.16586 11286 ft 335 kts 134°
2026-05-06 02:46 -36.79670 174.18622 10903 ft 333 kts 134°
2026-05-06 02:46 -36.81313 174.20647 10527 ft 330 kts 134°
2026-05-06 02:46 -36.82916 174.22624 10269 ft 313 kts 134°
2026-05-06 02:46 -36.84417 174.24473 10160 ft 297 kts 134°
2026-05-06 02:47 -36.85898 174.26299 9711 ft 302 kts 134°
2026-05-06 02:47 -36.87403 174.28155 9236 ft 305 kts 134°
2026-05-06 02:47 -36.88918 174.30028 8784 ft 308 kts 134°
2026-05-06 02:47 -36.90445 174.31916 8333 ft 310 kts 134°
2026-05-06 02:48 -36.91980 174.33815 7862 ft 309 kts 134°
2026-05-06 02:48 -36.93470 174.35652 7416 ft 300 kts 134°
2026-05-06 02:48 -36.94933 174.37458 6988 ft 292 kts 133°
2026-05-06 02:48 -36.96356 174.39217 6544 ft 284 kts 133°
2026-05-06 02:49 -36.97742 174.40933 6117 ft 276 kts 133°
2026-05-06 02:49 -36.99090 174.42604 5708 ft 271 kts 133°
2026-05-06 02:49 -37.00422 174.44258 5313 ft 269 kts 133°
2026-05-06 02:49 -37.01742 174.45898 4908 ft 266 kts 132°
2026-05-06 02:50 -37.03062 174.47542 4503 ft 269 kts 132°
2026-05-06 02:50 -37.04399 174.49209 4151 ft 270 kts 132°
2026-05-06 02:50 -37.05701 174.50836 4051 ft 261 kts 129°
2026-05-06 02:50 -37.06693 174.52672 3845 ft 249 kts 110°
2026-05-06 02:51 -37.07168 174.54705 3617 ft 239 kts 93°
2026-05-06 02:51 -37.07142 174.56748 3362 ft 231 kts 76°
2026-05-06 02:51 -37.06705 174.58625 3071 ft 218 kts 68°
2026-05-06 02:51 -37.06233 174.60344 2796 ft 205 kts 67°
2026-05-06 02:52 -37.05786 174.61977 2559 ft 190 kts 67°
2026-05-06 02:52 -37.05369 174.63496 2291 ft 179 kts 67°
2026-05-06 02:52 -37.04980 174.64914 2055 ft 165 kts 66°
2026-05-06 02:52 -37.04623 174.66214 1838 ft 152 kts 66°
2026-05-06 02:53 -37.04292 174.67419 1658 ft 140 kts 66°
2026-05-06 02:53 -37.03976 174.68565 1465 ft 138 kts 66°
2026-05-06 02:53 -37.03666 174.69689 1275 ft 136 kts 68°
2026-05-06 02:53 -37.03359 174.70805 1104 ft 135 kts 67°
2026-05-06 02:54 -37.03054 174.71913 914 ft 135 kts 68°
2026-05-06 02:54 -37.02748 174.73022 734 ft 134 kts 66°
2026-05-06 02:54 -37.02446 174.74119 564 ft 133 kts 68°
2026-05-06 02:54 -37.02140 174.75227 369 ft 136 kts 67°
2026-05-06 02:55 -37.01836 174.76332 193 ft 135 kts 68°
2026-05-06 02:55 -37.01536 174.77437 50 ft 133 kts 67°
2026-05-06 02:55 -37.01256 174.78410 26 ft 88 kts 70°
2026-05-06 02:55 -37.01149 174.78805 27 ft 30 kts 65°
2026-05-06 02:56 -37.01043 174.78986 27 ft 23 kts 41°
2026-05-06 02:56 -37.00948 174.79082 26 ft 16 kts 17°
2026-05-06 02:56 -37.00912 174.78980 28 ft 17 kts 250°
2026-05-06 02:56 -37.00955 174.78835 27 ft 19 kts 251°
2026-05-06 02:57 -37.00998 174.78673 29 ft 21 kts 252°
2026-05-06 02:57 -37.01046 174.78499 26 ft 21 kts 251°
2026-05-06 02:57 -37.01081 174.78342 26 ft 15 kts 267°
2026-05-06 02:57 -37.01002 174.78263 30 ft 17 kts 337°
2026-05-06 02:58 -37.00909 174.78225 26 ft 15 kts 39°
2026-05-06 02:58 -37.00883 174.78353 25 ft 16 kts 68°
2026-05-06 02:58 -37.00781 174.78380 27 ft 16 kts
2026-05-06 02:58 -37.00705 174.78414 28 ft 10 kts 23°
2026-05-06 02:59 -37.00669 174.78377 27 ft 5 kts 294°
2026-05-06 02:59 -37.00658 174.78346 25 ft 5 kts 293°
2026-05-06 02:59 -37.00649 174.78323 28 ft 3 kts 294°
2026-05-06 02:59 -37.00647 174.78317 30 ft 0 kts 294°